Bryce, UT

10:06 AM MDT on September 28, 2016 (GMT -0600)
Bryce Canyon

Weather History for KBCE - December, 2012

Change the Weather History Date:

Tuesday, December 4, 2012

  Actual Average Record
Temperature  
Mean Temperature 34 °F -  
Max Temperature 48 °F 41 °F 54 °F (1977)
Min Temperature 19 °F 13 °F -18 °F (2013)
Degree Days  
Heating Degree Days 32    
Moisture  
Dew Point 27 °F    
Average Humidity 78    
Maximum Humidity 96    
Minimum Humidity 46    
Precipitation  
Precipitation 0.00 in - - ()
Sea Level Pressure  
Sea Level Pressure 30.31 in    
Wind  
Wind Speed 4 mph (SSW)    
Max Wind Speed 14 mph    
Max Gust Speed -    
Visibility 10 miles    
Events      
Averages and records for this station are not official NWS values.
T = Trace of Precipitation, MM = Missing Value Source: NWS Daily Summary

Daily Weather History Graph

Daily Weather History Graph

Search for Another Location

Airport or City:

Trip Planner

Search our weather history database for the weather conditions in past years. The results will help you decide how hot, cold, wet, or windy it might be!

Date:

Astronomy

Dec. 04, 2012 Rise Set
Actual Time 7:28 AM MST 5:09 PM MST
Civil Twilight 6:59 AM MST 5:38 PM MST
Nautical Twilight 6:26 AM MST 6:11 PM MST
Astronomical Twilight 5:54 AM MST 6:43 PM MST
Moon 10:56 PM MST (12/4) 11:28 AM MST (12/4)
Length of Visible Light 10h 39m
Length of Day
9h 41m
Waning Gibbous, 69% of the Moon is Illuminated
Dec 4
Waning Gibbous
Dec 6
Last Quarter
Dec 13
New
Dec 19
First Quarter
Dec 28
Full

Hourly Weather History & Observations

Time (MST) Temp. Windchill Dew Point Humidity Pressure Visibility Wind Dir Wind Speed Gust Speed Precip Events Conditions
12:53 AM 19.9 °F - 19.0 °F 96% 30.26 in 10.0 mi Calm Calm - N/A   Clear
1:53 AM 23.0 °F 18.4 °F 21.9 °F 96% 30.23 in 10.0 mi West 3.5 mph - N/A   Clear
2:53 AM 25.0 °F 16.3 °F 23.0 °F 92% 30.24 in 10.0 mi West 8.1 mph - N/A   Clear
3:53 AM 26.1 °F 17.6 °F 24.1 °F 92% 30.25 in 10.0 mi WSW 8.1 mph - N/A   Clear
4:53 AM 25.0 °F - 23.0 °F 92% 30.28 in 10.0 mi Calm Calm - N/A   Clear
5:53 AM 28.0 °F 21.7 °F 25.0 °F 88% 30.30 in 10.0 mi West 5.8 mph - N/A   Scattered Clouds
6:53 AM 26.1 °F 19.4 °F 25.0 °F 96% 30.36 in 10.0 mi WSW 5.8 mph - N/A   Scattered Clouds
7:53 AM 26.1 °F - 25.0 °F 96% 30.39 in 10.0 mi Calm Calm - N/A   Scattered Clouds
8:53 AM 30.9 °F 27.5 °F 28.9 °F 92% 30.38 in 10.0 mi NW 3.5 mph - N/A   Scattered Clouds
9:53 AM 37.9 °F - 30.9 °F 76% 30.38 in 10.0 mi Calm Calm - N/A   Clear
10:53 AM 44.1 °F 40.8 °F 28.9 °F 55% 30.36 in 10.0 mi SE 5.8 mph - N/A   Clear
11:53 AM 44.1 °F 39.5 °F 28.9 °F 55% 30.35 in 10.0 mi SSE 8.1 mph - N/A   Clear
12:53 PM 46.0 °F 41.4 °F 28.0 °F 50% 30.33 in 10.0 mi SSE 9.2 mph - N/A   Clear
1:53 PM 48.0 °F - 28.0 °F 46% 30.28 in 10.0 mi SSE 10.4 mph - N/A   Clear
2:53 PM 48.0 °F - 28.9 °F 48% 30.27 in 10.0 mi SE 13.8 mph - N/A   Clear
3:53 PM 46.9 °F - 30.0 °F 52% 30.27 in 10.0 mi SSE 11.5 mph - N/A   Clear
4:53 PM 44.1 °F 39.5 °F 30.0 °F 58% 30.31 in 10.0 mi South 8.1 mph - N/A   Clear
5:53 PM 41.0 °F 36.4 °F 30.0 °F 65% 30.30 in 10.0 mi SE 6.9 mph - N/A   Clear
6:53 PM 39.0 °F 36.8 °F 30.0 °F 70% 30.32 in 10.0 mi SSW 3.5 mph - N/A   Scattered Clouds
7:53 PM 32.0 °F - 27.0 °F 82% 30.36 in 10.0 mi Calm Calm - N/A   Clear
8:53 PM 28.9 °F 25.2 °F 26.1 °F 89% 30.34 in 10.0 mi West 3.5 mph - N/A   Clear
9:53 PM 30.0 °F 26.5 °F 27.0 °F 88% 30.30 in 10.0 mi WSW 3.5 mph - N/A   Clear
10:53 PM 27.0 °F - 25.0 °F 92% 30.28 in 10.0 mi Calm Calm - N/A   Clear
11:53 PM 24.1 °F - 23.0 °F 96% 30.30 in 10.0 mi Calm Calm - N/A   Clear